[[{"header":{"parameterUnit":"m.s-1","parameterCategory":1,"la1":30.2991,"la2":30.254,"lo1":-89.0895,"lo2":-89.0444,"dy":0.0017,"dx":0.0017,"nx":28,"ny":28,"refTime":"2025-09-08T09:00:00:Z","depth":0,"parameterNumber":2,"parameterNumberName":"U-component_of_WINDS"},"data":[0,0,0,0,0,0,0,0,0,0,0,0,0,0,0,0,0,0,0,0,0,0,0,0,0,0,0,0,0,0,0,0,0,0,0,0,0,0,0,0,0,0,0,0,0,0,0,0,0,0,0,0,0,0,0,0,0,0,-2.6112,-2.6113,0,-2.62,-2.6201,-2.6202,-2.6116,-2.6113,-2.6109,-2.6106,-2.6198,-2.6204,-2.621,0,0,0,0,0,0,0,0,0,0,0,0,0,-2.5869,-2.5874,-2.6112,-2.6113,-2.6114,-2.62,-2.6201,-2.6203,-2.6117,-2.6112,-2.6108,-2.6104,-2.6197,-2.6203,-2.621,0,0,0,0,0,0,0,0,0,0,0,0,0,-2.5968,-2.5876,-2.6112,-2.6081,-2.608,-2.62,-2.6201,-2.6203,-2.6118,-2.6112,-2.6107,-2.6102,-2.6194,-2.6203,-2.6211,-2.6366,0,0,-2.6237,-2.6241,0,0,0,0,0,0,0,0,-2.5963,-2.5977,-2.6085,-2.6084,-2.6082,-2.6142,-2.615,-2.6258,-2.6119,-2.6103,-2.6106,-2.61,-2.6184,-2.6193,-2.6221,-2.637,-2.6374,-2.6238,-2.6243,-2.6246,-2.6249,0,0,0,0,0,0,0,-2.5956,-2.5973,-2.6147,-2.6086,-2.6085,-2.6064,-2.6072,-2.617,-2.6171,-2.6104,-2.6098,-2.611,-2.6182,-2.6213,-2.6222,-2.6376,-2.6237,-2.6245,-2.625,-2.6253,-2.6657,-2.6663,0,0,0,0,0,0,-2.5952,-2.5968,-2.6144,-2.6149,-2.6008,-2.6072,-2.6082,-2.6128,-2.617,-2.6171,-2.6114,-2.6105,-2.6201,-2.6213,-2.6225,-2.6411,-2.6246,-2.6254,-2.6259,-2.6652,-2.6658,-2.6665,0,0,0,0,0,0,-2.5947,-2.5969,-2.614,-2.6057,-2.6077,-2.6082,-2.6135,-2.6132,-2.6163,-2.6177,-2.6177,-2.6145,-2.6197,-2.6213,-2.6332,-2.6413,-2.6258,-2.6266,-2.6645,-2.6654,-2.6662,-2.6782,0,0,0,0,0,0,-2.5941,-2.5967,-2.6026,-2.6059,-2.6082,-2.6246,-2.6139,-2.6138,-2.6178,-2.6167,-2.6207,-2.6208,-2.6195,-2.6319,-2.634,-2.6421,-2.6272,-2.6638,-2.6649,-2.6659,-2.6771,-2.6794,-2.6813,0,0,0,0,0,-2.5932,-2.6057,-2.603,-2.6052,-2.6156,-2.625,-2.6264,-2.6245,-2.6184,-2.6244,-2.6253,-2.6207,-2.64,-2.6332,-2.6355,-2.644,-2.6633,-2.6646,-2.6658,-2.6761,-2.6789,-2.6812,0,0,0,0,0,0,-2.6035,-2.6061,-2.6031,-2.617,-2.6208,-2.6236,-2.631,-2.6275,-2.6332,-2.632,-2.6294,-2.6304,-2.6429,-2.6446,-2.637,-2.6592,-2.6506,-2.6524,-2.6577,-2.6604,-2.6624,-2.6619,-2.6279,0,0,0,0,0,-2.6073,-2.6147,-2.6166,-2.6287,-2.6308,-2.6306,-2.6346,-2.6328,-2.6368,-2.6384,-2.6402,-2.6442,-2.6511,-2.6558,-2.6623,-2.6772,-2.678,-2.6841,-2.6862,-2.6879,-2.6896,-2.6977,-2.7005,-2.6706,-2.6706,-2.6706,0,0,-2.6154,-2.6177,-2.6226,-2.6308,-2.6336,-2.6414,-2.632,-2.6407,-2.6465,-2.6397,-2.651,-2.6525,-2.6568,-2.6703,-2.6763,-2.672,-2.698,-2.6896,-2.6909,-2.6917,-2.6993,-2.7021,-2.7046,-2.6715,-2.6713,-2.6712,0,0,-2.6342,-2.6366,-2.647,-2.65,-2.6543,-2.654,-2.6565,-2.6598,-2.6605,-2.6717,-2.6668,-2.6736,-2.6857,-2.689,-2.6922,-2.7122,-2.7082,-2.7143,-2.7254,-2.7333,-2.7357,-2.7377,-2.745,-2.7476,-2.7159,-2.7159,-2.7159,0,-2.6437,-2.6553,-2.6528,-2.6618,-2.6656,-2.6597,-2.6702,-2.6732,-2.6795,-2.6823,-2.6774,-2.6923,-2.6948,-2.709,-2.7139,-2.7166,-2.7195,-2.714,-2.7355,-2.7376,-2.7395,-2.7464,-2.7491,-2.7167,-2.7166,-2.7165,-2.7164,0,-2.6668,-2.6749,-2.6828,-2.6889,-2.6935,-2.7033,-2.7023,-2.7073,-2.7051,-2.7054,-2.7169,-2.7197,-2.7266,-2.7298,-2.7277,-2.7438,-2.741,-2.7359,-2.7272,-2.7431,-2.7495,-2.7521,-2.7177,-2.7174,-2.7172,-2.717,0,0,-2.6925,-2.6971,-2.7,-2.7028,-2.707,-2.7132,-2.7227,-2.7294,-2.7338,-2.7382,-2.7462,-2.7564,-2.7517,-2.7554,-2.7536,-2.7605,-2.7763,-2.7545,-2.7546,-2.7586,-2.7942,-2.7982,-2.8013,-2.7735,-2.774,-2.7744,-2.7939,0,-2.7116,-2.728,-2.726,-2.7417,-2.7492,-2.7436,-2.7518,-2.7554,-2.7559,-2.7623,-2.7628,-2.7702,-2.7633,-2.7655,-2.7721,-2.773,-2.7834,-2.7715,-2.781,-2.7814,-2.7804,-2.8047,-2.8089,-2.8272,-2.7964,-2.7968,-2.7971,0,-2.736,-2.7413,-2.7578,-2.7609,-2.764,-2.7714,-2.7774,-2.7836,-2.7875,-2.7873,-2.7914,-2.7884,-2.7979,-2.7889,-2.802,-2.794,-2.7977,-2.7987,-2.7994,-2.8004,-2.7904,-2.8065,-2.833,-2.8359,-2.801,-2.8007,-2.8004,0,-2.7533,-2.7646,-2.7759,-2.7783,-2.7822,-2.7876,-2.7895,-2.7928,-2.797,-2.8022,-2.8049,-2.8112,-2.8147,-2.8197,-2.8184,-2.8119,-2.8319,-2.8228,-2.8322,-2.8323,-2.8368,-2.8366,-2.8645,-2.8389,-2.8389,-2.8388,-2.8388,0,-2.7749,-2.7853,-2.7837,-2.7907,-2.8021,-2.7997,-2.8111,-2.8122,-2.8153,-2.8224,-2.8179,-2.8247,-2.8225,-2.8292,-2.8283,-2.8394,-2.841,-2.8412,-2.8409,-2.8417,-2.8418,-2.8443,-2.8431,-2.8395,-2.8394,-2.8392,-2.8391,0,-2.7963,-2.7957,-2.8077,-2.8103,-2.8112,-2.8195,-2.8218,-2.8284,-2.8284,-2.8375,-2.8395,-2.8396,-2.8473,-2.8464,-2.855,-2.8544,-2.8682,-2.8662,-2.867,-2.8666,-2.8761,-2.8753,-2.9069,-2.9109,-2.8825,-2.8828,-2.883,0,-2.8103,-2.8181,-2.8215,-2.826,-2.8282,-2.8354,-2.8396,-2.8375,-2.8421,-2.847,-2.8531,-2.8603,-2.866,-2.8785,-2.8794,-2.8859,-2.8842,-2.8948,-2.8852,-2.8858,-2.8846,-2.8843,-2.8851,-2.8968,-2.8971,-2.8974,-2.8976,0,-2.8352,-2.8344,-2.8406,-2.8468,-2.852,-2.8567,-2.861,-2.8649,-2.8632,-2.8686,-2.8763,-2.8807,-2.8894,-2.8967,-2.9029,-2.9048,-2.9011,-2.9006,-2.9031,-2.9042,-2.9044,-2.9046,-2.8724,-2.8999,-2.8997,-2.8995,-2.8994,-2.8993,-2.8534,-2.8601,-2.8636,-2.8707,-2.8736,-2.8778,-2.8841,-2.8849,-2.8913,-2.8982,-2.8965,-2.9053,-2.9089,-2.9168,-2.9194,-2.9262,-2.9224,-2.9261,-2.927,-2.928,-2.9292,-2.9031,-2.9273,-2.9273,-2.9272,-2.9271,-2.9271,0,-2.8782,-2.8801,-2.8866,-2.8928,-2.8984,-2.8941,-2.8986,-2.9036,-2.9114,-2.9151,-2.9207,-2.9297,-2.9367,-2.9381,-2.9448,-2.95,-2.9484,-2.9519,-2.9516,-2.9521,-2.9322,-2.9294,-2.953,-2.953,-2.953,-2.953,-2.953,-2.953,-2.8918,-2.9029,-2.9026,-2.9152,-2.917,-2.9256,-2.9286,-2.9323,-2.9352,-2.9454,-2.9512,-2.952,-2.9548,-2.9616,-2.9679,-2.9681,-2.9709,-2.975,-2.9746,-2.9561,-2.9535,-2.951,-2.9484,-2.9756,-2.9756,-2.9939,-2.9941,-2.9942]},{"header":{"parameterUnit":"m.s-1","parameterCategory":1,"la1":30.2991,"la2":30.254,"lo1":-89.0895,"lo2":-89.0444,"dy":0.0017,"dx":0.0017,"nx":28,"ny":28,"refTime":"2025-09-08T09:00:00:Z","depth":0,"parameterNumber":3,"parameterNumberName":"V-component_of_WINDS"},"data":[0,0,0,0,0,0,0,0,0,0,0,0,0,0,0,0,0,0,0,0,0,0,0,0,0,0,0,0,0,0,0,0,0,0,0,0,0,0,0,0,0,0,0,0,0,0,0,0,0,0,0,0,0,0,0,0,0,0,-5.9361,-5.9361,0,-5.9393,-5.9393,-5.9393,-5.9301,-5.9299,-5.9296,-5.9293,-5.9323,-5.9326,-5.933,0,0,0,0,0,0,0,0,0,0,0,0,0,-5.9217,-5.922,-5.9361,-5.9361,-5.9362,-5.9392,-5.9393,-5.9393,-5.9302,-5.9298,-5.9295,-5.9292,-5.9322,-5.9326,-5.933,0,0,0,0,0,0,0,0,0,0,0,0,0,-5.9267,-5.9221,-5.9361,-5.932,-5.9316,-5.9392,-5.9393,-5.9393,-5.9303,-5.9298,-5.9294,-5.929,-5.932,-5.9325,-5.933,-5.9447,0,0,-5.9346,-5.9348,0,0,0,0,0,0,0,0,-5.9264,-5.9272,-5.9325,-5.9323,-5.9319,-5.9339,-5.9353,-5.9411,-5.9304,-5.9308,-5.9293,-5.9288,-5.9331,-5.9335,-5.935,-5.9448,-5.9449,-5.9347,-5.935,-5.9352,-5.9353,0,0,0,0,0,0,0,-5.9261,-5.927,-5.9373,-5.9326,-5.9322,-5.9298,-5.9301,-5.9364,-5.9343,-5.9307,-5.93,-5.9306,-5.9329,-5.9346,-5.935,-5.945,-5.9346,-5.9351,-5.9354,-5.9356,-5.9642,-5.9646,0,0,0,0,0,0,-5.9263,-5.9268,-5.9372,-5.9374,-5.9281,-5.9304,-5.9307,-5.9337,-5.9342,-5.9339,-5.9309,-5.9301,-5.9339,-5.9345,-5.9351,-5.9486,-5.9352,-5.9357,-5.936,-5.9637,-5.9643,-5.9648,0,0,0,0,0,0,-5.926,-5.9273,-5.9371,-5.9319,-5.933,-5.9311,-5.9345,-5.9339,-5.9356,-5.9344,-5.9339,-5.9331,-5.9336,-5.9344,-5.9423,-5.9486,-5.9359,-5.9364,-5.9632,-5.9639,-5.9645,-5.9758,0,0,0,0,0,0,-5.9257,-5.9273,-5.9318,-5.9321,-5.9333,-5.9444,-5.9349,-5.9343,-5.9366,-5.9356,-5.9362,-5.9359,-5.9333,-5.9416,-5.9428,-5.949,-5.9368,-5.9626,-5.9635,-5.9643,-5.9748,-5.9767,-5.9784,0,0,0,0,0,-5.9252,-5.9348,-5.9321,-5.9334,-5.9389,-5.9448,-5.9454,-5.9423,-5.9371,-5.9415,-5.9407,-5.9359,-5.9477,-5.9425,-5.9438,-5.9503,-5.9622,-5.9633,-5.9643,-5.974,-5.9764,-5.9783,0,0,0,0,0,0,-5.9352,-5.9348,-5.9317,-5.9418,-5.9434,-5.9432,-5.9487,-5.9449,-5.948,-5.9469,-5.9428,-5.943,-5.9516,-5.9517,-5.9459,-5.9614,-5.9541,-5.9554,-5.961,-5.9632,-5.965,-5.9647,-5.9372,0,0,0,0,0,-5.9386,-5.9436,-5.9428,-5.9518,-5.9527,-5.9506,-5.9531,-5.9505,-5.952,-5.9526,-5.9523,-5.9538,-5.9578,-5.9606,-5.9642,-5.9748,-5.9747,-5.9799,-5.9817,-5.9831,-5.9843,-5.9897,-5.9919,-5.9681,-5.9681,-5.9681,0,0,-5.9457,-5.946,-5.9494,-5.9538,-5.9547,-5.9597,-5.9513,-5.957,-5.9606,-5.9534,-5.9608,-5.9607,-5.9621,-5.9714,-5.9755,-5.9717,-5.9908,-5.9844,-5.9856,-5.9859,-5.991,-5.9932,-5.9952,-5.9688,-5.9687,-5.9686,0,0,-5.961,-5.9619,-5.9693,-5.9704,-5.972,-5.9705,-5.9723,-5.9727,-5.9723,-5.9798,-5.9744,-5.9786,-5.9857,-5.9868,-5.9884,-6.004,-5.9997,-6.0053,-6.0146,-6.0199,-6.0218,-6.0234,-6.0288,-6.0308,-6.0065,-6.0066,-6.0066,0,-5.9695,-5.977,-5.9736,-5.9796,-5.9816,-5.9754,-5.9828,-5.984,-5.9867,-5.9881,-5.984,-5.9926,-5.9931,-6.0025,-6.0063,-6.0078,-6.0096,-6.0052,-6.0218,-6.0234,-6.0249,-6.03,-6.0321,-6.0072,-6.0071,-6.0071,-6.007,0,-5.9873,-5.9925,-5.9983,-6.0011,-6.0037,-6.0104,-6.0079,-6.011,-6.0082,-6.0071,-6.0146,-6.015,-6.0186,-6.0206,-6.018,-6.0296,-6.0272,-6.0225,-6.015,-6.0279,-6.0326,-6.0345,-6.0082,-6.0079,-6.0077,-6.0076,0,0,-6.0091,-6.0098,-6.0119,-6.013,-6.0142,-6.0181,-6.0245,-6.028,-6.0306,-6.0326,-6.0377,-6.0438,-6.0394,-6.0411,-6.0385,-6.0432,-6.0554,-6.0379,-6.0379,-6.041,-6.068,-6.0714,-6.0737,-6.0526,-6.0529,-6.0532,-6.0678,0,-6.024,-6.035,-6.032,-6.0429,-6.0475,-6.0416,-6.0471,-6.0484,-6.0475,-6.0512,-6.0502,-6.0545,-6.0485,-6.0495,-6.0539,-6.053,-6.0607,-6.0519,-6.0571,-6.0573,-6.0568,-6.0762,-6.0799,-6.0936,-6.0696,-6.07,-6.0702,0,-6.043,-6.0457,-6.0571,-6.0573,-6.0592,-6.0642,-6.067,-6.0708,-6.072,-6.071,-6.0729,-6.0693,-6.0754,-6.068,-6.0761,-6.0702,-6.0721,-6.072,-6.0725,-6.0727,-6.0644,-6.0768,-6.098,-6.1,-6.0731,-6.0729,-6.0727,0,-6.0575,-6.064,-6.0716,-6.0727,-6.0733,-6.0769,-6.0773,-6.0781,-6.0803,-6.0828,-6.0842,-6.0874,-6.0891,-6.0916,-6.0888,-6.0837,-6.0974,-6.0898,-6.0966,-6.0967,-6.0996,-6.0994,-6.1212,-6.1012,-6.1012,-6.1011,-6.1011,0,-6.0744,-6.0815,-6.0781,-6.0827,-6.0904,-6.0869,-6.0946,-6.0943,-6.0951,-6.0994,-6.0946,-6.0987,-6.095,-6.0988,-6.0967,-6.1037,-6.1046,-6.1038,-6.1031,-6.1042,-6.1042,-6.1053,-6.1042,-6.1017,-6.1015,-6.1014,-6.1013,0,-6.0919,-6.0899,-6.0977,-6.0976,-6.0977,-6.1034,-6.1032,-6.1074,-6.1061,-6.1117,-6.1128,-6.1108,-6.1151,-6.1126,-6.117,-6.1155,-6.1246,-6.1227,-6.1242,-6.1236,-6.1305,-6.1298,-6.1535,-6.1564,-6.1347,-6.1349,-6.1351,0,-6.1027,-6.1081,-6.1085,-6.1111,-6.1118,-6.1161,-6.1183,-6.115,-6.1175,-6.1193,-6.1232,-6.127,-6.1299,-6.1368,-6.1357,-6.139,-6.137,-6.1451,-6.1374,-6.1382,-6.1369,-6.1365,-6.137,-6.1466,-6.1468,-6.1471,-6.1472,0,-6.1222,-6.1209,-6.1244,-6.1275,-6.1303,-6.1326,-6.1344,-6.1368,-6.1335,-6.1366,-6.1408,-6.1431,-6.1474,-6.1512,-6.1539,-6.1542,-6.1501,-6.1497,-6.1514,-6.1524,-6.1529,-6.1525,-6.1282,-6.1491,-6.1489,-6.1488,-6.1487,-6.1486,-6.1365,-6.1409,-6.1418,-6.1458,-6.1469,-6.1487,-6.1526,-6.1518,-6.1553,-6.1587,-6.1565,-6.1615,-6.1624,-6.1656,-6.1664,-6.1702,-6.1669,-6.1694,-6.17,-6.1706,-6.1715,-6.1525,-6.1707,-6.1706,-6.1706,-6.1705,-6.1705,0,-6.1555,-6.1558,-6.1595,-6.1623,-6.1654,-6.1614,-6.1632,-6.166,-6.1704,-6.1717,-6.1746,-6.1794,-6.183,-6.1822,-6.1854,-6.1885,-6.1868,-6.1895,-6.1891,-6.1892,-6.1743,-6.1725,-6.1909,-6.1909,-6.1909,-6.1909,-6.1908,-6.1908,-6.1658,-6.1729,-6.1717,-6.1792,-6.1794,-6.1843,-6.1857,-6.1873,-6.1882,-6.1938,-6.1968,-6.1962,-6.1966,-6.1998,-6.2029,-6.2025,-6.2038,-6.2072,-6.2062,-6.1923,-6.1903,-6.1883,-6.1865,-6.2076,-6.2076,-6.2207,-6.2208,-6.2209]}]]